Regional Weather Roundup
Issued by NWS New Orleans/Baton Rouge, LA

Home | Current Version | Previous Version | Graphics & Text | Print | Product List | Glossary On
Versions: 1 2 3 4 5 6 7 8 9 10 11 12 13 14 15 16 17 18 19 20 21 22 23 24 25 26 27 28 29 30 31 32 33 34 35 36 37 38 39 40 41 42 43 44 45 46 47 48 49 50
073
ASUS44 KLIX 270310
RWRLIX
NEW ORLEANS REGIONAL WEATHER ROUNDUP
NATIONAL WEATHER SERVICE NEW ORLEANS LA
1000 PM CDT TUE AUG 26 2014

NOTE: "FAIR" INDICATES FEW OR NO CLOUDS BELOW 12,000 FEET WITH NO
      SIGNIFICANT WEATHER AND/OR OBSTRUCTIONS TO VISIBILITY.
      SKY/WX - SKY CONDITION AND SIGNIFICANT WEATHER.
      TMP - AIR TEMPERATURE.     DP    - DEWPOINT TEMPERATURE.
      RH  - RELATIVE HUMIDITY.   PRES  - PRESSURE.
      HI  - HEAT INDEX.          WCI   - WIND CHILL INDEX.

*  THESE STATIONS ARE NOT NWS OR FAA STATIONS AND ARE NOT UNDER
   NWS QUALITY CONTROL.

LAZ038-040-048-061>063-065>067-069-270400-
SOUTHEAST LOUISIANA

CITY           SKY/WX    TMP DP  RH WIND       PRES   REMARKS
N.O. AUDUBON     N/A     82  73  75 MISG        N/A
N.O. INTL ARPT MOCLDY    82  71  69 E3        29.98R
N.O. LAKEFRONT PTCLDY    83  73  72 E7        29.98R
N.O. DOWNTOWN*   N/A     82  70  65 E3        29.98S
SLIDELL        MOCLDY    78  73  84 CALM      29.98R
BATON ROUGE    PTCLDY    77  74  90 CALM      29.99R
BOOTHVILLE     PTCLDY    83  77  82 E8        29.97R
BELLE CHASSE   MOCLDY    78  72  81 E3        29.97R
BOGALUSA*        N/A     76  70  82 CALM      30.01R
GALLIANO*      NOT AVBL
NEW ROADS*       N/A     76  72  86 NE3       29.99R
GONZALES*        N/A     77  77 100 CALM      29.98R
HAMMOND*       PTCLDY    79  72  78 CALM      30.00S
HOUMA*         PTCLDY    77  71  83 NE3       29.97R
PORT FOURCHON* PTCLDY    82  75  78 E12       29.97S

$$

MSZ070-080>082-270400-
SOUTHERN MISSISSIPPI

CITY           SKY/WX    TMP DP  RH WIND       PRES   REMARKS
MCCOMB         MOCLDY    79  66  64 NE3       30.01R
GULFPORT       MOCLDY    83  73  72 E5        29.98R
BILOXI         MOCLDY    84  72  67 E2        29.99R
PASCAGOULA     MOCLDY    75  73  93 CALM      29.99R

$$

COASTAL OBSERVATIONS
LAKE AND NEARSHORE STATIONS

STATION/POSITION TIME  TEMP    WIND        PRES    WAVE
                       AIR SEA DIR/SP/G            HT/PER
                 (UTC) (F)     (DEG/KT/KT) (MB)    (FT/S)
PASCAGOULA       0300   84      CALM  /  5 1014.9
WAVELAND YACHT   0300   84     130/  7/  9 1014.7
GRAND ISLE       0300   83 85   80/ 11/ 13 1015.2
SOUTHWEST PASS   0300   85 88   90/ 20/ 22 1014.6
NEW CANAL        0300   82 84   CALM  /  2 1015.6
SHELL BEACH      0300   82 81  110/  9/ 11 1014.7

OFFSHORE STATIONS

STATION/POSITION TIME  TEMP    WIND        PRES    WAVE
                       AIR SEA DIR/SP/G            HT/PER
                 (UTC) (F)     (DEG/KT/KT) (MB)    (FT/S)
64 S DAUPHIN ISL 0200   85 86   90/ 16/ 17 1014.9

$$




USA.gov is the U.S. government's official web portal to all federal, state and local government web resources and services.